Location: Kingston, Ontario, Canada
(44.2796°N, 76.5445°W)
Time: 19:02:48
(UTC-04:00)

ISS - Visible Passes

Search period start: 05 May 2021 00:00
Search period end: 15 May 2021 00:00
Orbit: 418 x 421 km, 51.6° (Epoch: 05 May)

Date Brightness Start Highest point End Pass type
(mag) Time Alt. Az. Time Alt. Az. Time Alt. Az.
05 May -0.8 02:13:02 14° ENE 02:13:02 14° ENE 02:13:36 10° ENE visible
05 May -2.2 03:45:59 24° WNW 03:47:14 32° NNW 03:50:20 10° NE visible
06 May -2.5 03:00:05 39° N 03:00:05 39° N 03:02:56 10° NE visible
06 May -1.5 04:34:21 10° WNW 04:37:07 23° N 04:39:52 10° NE visible
07 May -1.3 02:14:09 22° NE 02:14:09 22° NE 02:15:33 10° NE visible
07 May -1.6 03:47:05 12° WNW 03:49:30 24° N 03:52:20 10° NE visible
08 May -1.9 03:01:09 24° NW 03:01:54 27° NNW 03:04:50 10° NE visible
08 May -1.5 04:36:35 10° NW 04:39:25 24° N 04:42:17 10° ENE visible
09 May -1.7 02:15:09 28° NNE 02:15:09 28° NNE 02:17:24 10° NE visible
09 May -1.4 03:49:03 10° NW 03:51:48 23° N 03:54:34 10° ENE visible
10 May -0.9 01:29:09 16° NE 01:29:09 16° NE 01:30:00 10° NE visible
10 May -1.4 03:02:05 14° NW 03:04:11 23° N 03:06:56 10° NE visible
10 May -2.0 04:38:31 10° NW 04:41:39 34° NNE 04:44:47 10° E visible
11 May -1.5 02:16:02 23° NNW 02:16:33 24° N 02:19:23 10° NE visible
11 May -1.6 03:51:06 10° NW 03:54:05 28° NNE 03:57:03 10° ENE visible
12 May -1.3 01:29:55 23° NNE 01:29:55 23° NNE 01:31:53 10° NE visible
12 May -1.4 03:03:37 10° NW 03:06:28 24° N 03:09:19 10° ENE visible
12 May -3.3 04:40:22 10° NW 04:43:44 64° NNE 04:47:05 10° ESE visible
13 May -0.9 00:43:43 15° NE 00:43:43 15° NE 00:44:26 10° NE visible
13 May -1.3 02:16:38 13° NW 02:18:51 23° N 02:21:36 10° ENE visible
13 May -2.6 03:52:57 10° NW 03:56:13 45° NNE 03:59:29 10° E visible
14 May -1.3 01:30:05 19° NNW 01:31:11 23° N 01:33:57 10° NE visible
14 May -2.0 03:05:33 10° NW 03:08:41 34° NNE 03:11:47 10° E visible
14 May -3.6 04:42:18 10° WNW 04:45:36 51° SW 04:48:53 10° SE visible
14 May -2.6 21:27:00 10° S 21:29:41 22° SE 21:32:21 10° E visible
14 May -3.2 23:02:56 10° WSW 23:06:16 57° NNW 23:09:36 10° NE visible
